Weather History for St. Paul Lake Elmo, MN

Change the Weather History Date:

Saturday, July 20, 2013

  Actual Average (KSTP) Record (KSTP)
Temperature  
Mean Temperature 71 °F -  
Max Temperature 80 °F 80 °F 96 °F (2011)
Min Temperature 62 °F 62 °F 55 °F (2000)
Cooling Degree Days 6    
Growing Degree Days 21 (Base 50)    
Moisture  
Dew Point 60 °F    
Average Humidity 67    
Maximum Humidity 94    
Minimum Humidity 44    
Precipitation  
Precipitation 0.00 in - - ()
Sea Level Pressure  
Sea Level Pressure 29.93 in    
Wind  
Wind Speed 5 mph (NNE)    
Max Wind Speed 10 mph    
Max Gust Speed -    
Visibility 10 miles    
Events      
Averages and records for this station are not official NWS values.
T = Trace of Precipitation, MM = Missing Value Source: NWS Daily Summary

Daily Weather History Graph

Daily Weather History Graph

Search for Another Location

Airport:

Trip Planner

Search our weather history database for the weather conditions in past years. The results will help you decide how hot, cold, wet, or windy it might be!

Date:

Astronomy

Jul. 20, 2013 Rise Set
Actual Time 5:44 AM CDT 8:50 PM CDT
Civil Twilight 5:08 AM CDT 9:26 PM CDT
Nautical Twilight 4:23 AM CDT 10:11 PM CDT
Astronomical Twilight 3:28 AM CDT 11:06 PM CDT
Moon 6:54 PM CDT 3:24 AM CDT
Length of Visible Light 16h 17m
Length of Day
15h 06m
Waxing Gibbous, 94% of the Moon is Illuminated
Jul 20
Waxing Gibbous
Jul 22
Full
Jul 29
Last Quarter
Aug 6
New
Aug 14
First Quarter

Hourly Weather History & Observations

Time (CDT) Temp. Heat Index Dew Point Humidity Pressure Visibility Wind Dir Wind Speed Gust Speed Precip Events Conditions
12:05 AM 69.8 °F - 62.6 °F 78% 29.89 in 10.0 mi WSW 4.6 mph - N/A   Scattered Clouds
12:25 AM 71.6 °F - 62.6 °F 73% 29.88 in 10.0 mi WNW 6.9 mph - N/A   Clear
12:45 AM 71.6 °F - 62.6 °F 73% 29.88 in 10.0 mi West 4.6 mph - N/A   Clear
1:05 AM 69.8 °F - 62.6 °F 78% 29.88 in 10.0 mi West 5.8 mph - N/A   Clear
1:25 AM 68.0 °F - 62.6 °F 83% 29.89 in 10.0 mi West 4.6 mph - N/A   Clear
1:45 AM 68.0 °F - 62.6 °F 83% 29.89 in 10.0 mi WNW 4.6 mph - N/A   Clear
2:05 AM 68.0 °F - 62.6 °F 83% 29.90 in 10.0 mi WNW 6.9 mph - N/A   Clear
2:25 AM 68.0 °F - 62.6 °F 83% 29.90 in 10.0 mi WNW 5.8 mph - N/A   Scattered Clouds
2:45 AM 68.0 °F - 62.6 °F 83% 29.90 in 10.0 mi Calm Calm - N/A   Mostly Cloudy
3:05 AM 68.0 °F - 62.6 °F 83% 29.88 in 10.0 mi Calm Calm - N/A   Scattered Clouds
3:25 AM 66.2 °F - 62.6 °F 88% 29.89 in 10.0 mi WNW 4.6 mph - N/A   Scattered Clouds
3:45 AM 66.2 °F - 60.8 °F 83% 29.90 in 10.0 mi West 3.5 mph - N/A   Mostly Cloudy
4:05 AM 66.2 °F - 60.8 °F 83% 29.90 in 10.0 mi Calm Calm - N/A   Scattered Clouds
4:25 AM 66.2 °F - 60.8 °F 83% 29.90 in 10.0 mi Calm Calm - N/A   Mostly Cloudy
4:45 AM 66.2 °F - 60.8 °F 83% 29.90 in 10.0 mi Calm Calm - N/A   Mostly Cloudy
5:05 AM 64.4 °F - 60.8 °F 88% 29.90 in 10.0 mi Calm Calm - N/A   Scattered Clouds
5:25 AM 62.6 °F - 60.8 °F 94% 29.90 in 10.0 mi Calm Calm - N/A   Scattered Clouds
5:45 AM 62.6 °F - 60.8 °F 94% 29.90 in 10.0 mi Calm Calm - N/A   Scattered Clouds
6:05 AM 62.6 °F - 60.8 °F 94% 29.91 in 10.0 mi Calm Calm - N/A   Scattered Clouds
6:25 AM 64.4 °F - 60.8 °F 88% 29.92 in 10.0 mi NW 3.5 mph - N/A   Scattered Clouds
6:45 AM 66.2 °F - 62.6 °F 88% 29.92 in 10.0 mi NNW 3.5 mph - N/A   Mostly Cloudy
7:05 AM 66.2 °F - 62.6 °F 88% 29.93 in 10.0 mi NW 5.8 mph - N/A   Mostly Cloudy
7:25 AM 68.0 °F - 62.6 °F 83% 29.93 in 10.0 mi NW 4.6 mph - N/A   Scattered Clouds
7:45 AM 68.0 °F - 62.6 °F 83% 29.94 in 10.0 mi NW 3.5 mph - N/A   Clear
8:05 AM 68.0 °F - 62.6 °F 83% 29.95 in 10.0 mi NW 4.6 mph - N/A   Clear
8:25 AM 69.8 °F - 62.6 °F 78% 29.95 in 10.0 mi North 3.5 mph - N/A   Clear
8:45 AM 69.8 °F - 62.6 °F 78% 29.95 in 10.0 mi NNE 3.5 mph - N/A   Clear
9:05 AM 69.8 °F - 62.6 °F 78% 29.95 in 10.0 mi North 3.5 mph - N/A   Clear
9:25 AM 71.6 °F - 60.8 °F 69% 29.96 in 10.0 mi NE 3.5 mph - N/A   Clear
9:45 AM 71.6 °F - 62.6 °F 73% 29.96 in 10.0 mi North 3.5 mph - N/A   Clear
10:05 AM 73.4 °F - 62.6 °F 69% 29.95 in 10.0 mi ENE 4.6 mph - N/A   Clear
10:25 AM 73.4 °F - 62.6 °F 69% 29.96 in 10.0 mi Calm Calm - N/A   Clear
10:45 AM 75.2 °F - 62.6 °F 65% 29.96 in 10.0 mi East 5.8 mph - N/A   Clear
11:05 AM 75.2 °F - 62.6 °F 65% 29.96 in 10.0 mi East 4.6 mph - N/A   Scattered Clouds
11:25 AM 75.2 °F - 62.6 °F 65% 29.96 in 10.0 mi NE 5.8 mph - N/A   Scattered Clouds
11:45 AM 75.2 °F - 60.8 °F 61% 29.96 in 10.0 mi East 4.6 mph - N/A   Scattered Clouds
12:05 PM 77.0 °F - 60.8 °F 57% 29.96 in 10.0 mi North 4.6 mph - N/A   Scattered Clouds
12:25 PM 77.0 °F - 57.2 °F 50% 29.96 in 10.0 mi NNE 6.9 mph - N/A   Clear
12:45 PM 78.8 °F - 59.0 °F 51% 29.96 in 10.0 mi North 6.9 mph - N/A   Clear
1:05 PM 78.8 °F - 57.2 °F 47% 29.96 in 10.0 mi North 6.9 mph - N/A   Clear
1:25 PM 78.8 °F - 57.2 °F 47% 29.96 in 10.0 mi NNE 4.6 mph - N/A   Clear
1:45 PM 78.8 °F - 57.2 °F 47% 29.95 in 10.0 mi NNE 5.8 mph - N/A   Clear
2:05 PM 78.8 °F - 57.2 °F 47% 29.95 in 10.0 mi NE 6.9 mph - N/A   Clear
2:25 PM 78.8 °F - 57.2 °F 47% 29.95 in 10.0 mi NNE 6.9 mph - N/A   Clear
2:45 PM 78.8 °F - 57.2 °F 47% 29.95 in 10.0 mi NE 8.1 mph - N/A   Clear
3:05 PM 78.8 °F - 55.4 °F 44% 29.94 in 10.0 mi ENE 10.4 mph - N/A   Clear
3:25 PM 77.0 °F - 57.2 °F 50% 29.93 in 10.0 mi NE 6.9 mph - N/A   Clear
3:45 PM 77.0 °F - 57.2 °F 50% 29.92 in 10.0 mi ENE 5.8 mph - N/A   Scattered Clouds
4:05 PM 80.6 °F 80.8 °F 57.2 °F 45% 29.93 in 10.0 mi ENE 5.8 mph - N/A   Mostly Cloudy
4:25 PM 80.6 °F 80.8 °F 57.2 °F 45% 29.93 in 10.0 mi ENE 6.9 mph - N/A   Scattered Clouds
4:45 PM 78.8 °F - 57.2 °F 47% 29.94 in 10.0 mi NE 6.9 mph - N/A   Clear
5:05 PM 78.8 °F - 57.2 °F 47% 29.94 in 10.0 mi NE 5.8 mph - N/A   Clear
5:25 PM 77.0 °F - 57.2 °F 50% 29.94 in 10.0 mi ENE 6.9 mph - N/A   Scattered Clouds
5:45 PM 77.0 °F - 59.0 °F 54% 29.93 in 10.0 mi NNE 5.8 mph - N/A   Scattered Clouds
6:05 PM 77.0 °F - 59.0 °F 54% 29.93 in 10.0 mi NE 8.1 mph - N/A   Scattered Clouds
6:25 PM 77.0 °F - 59.0 °F 54% 29.92 in 10.0 mi NE 8.1 mph - N/A   Clear
6:45 PM 77.0 °F - 57.2 °F 50% 29.92 in 10.0 mi NE 8.1 mph - N/A   Clear
7:05 PM 75.2 °F - 57.2 °F 53% 29.92 in 10.0 mi NE 9.2 mph - N/A   Clear
7:25 PM 75.2 °F - 57.2 °F 53% 29.93 in 10.0 mi NNE 8.1 mph - N/A   Scattered Clouds
7:45 PM 73.4 °F - 59.0 °F 61% 29.93 in 10.0 mi NNE 5.8 mph - N/A   Scattered Clouds
8:05 PM 73.4 °F - 57.2 °F 57% 29.94 in 10.0 mi NNE 5.8 mph - N/A   Scattered Clouds
8:25 PM 71.6 °F - 57.2 °F 60% 29.94 in 10.0 mi NNE 5.8 mph - N/A   Mostly Cloudy
8:45 PM 71.6 °F - 57.2 °F 60% 29.94 in 10.0 mi NNE 4.6 mph - N/A   Scattered Clouds
9:05 PM 69.8 °F - 57.2 °F 64% 29.94 in 10.0 mi NE 4.6 mph - N/A   Scattered Clouds
9:25 PM 69.8 °F - 57.2 °F 64% 29.95 in 10.0 mi NE 4.6 mph - N/A   Mostly Cloudy
9:45 PM 69.8 °F - 57.2 °F 64% 29.96 in 10.0 mi NE 4.6 mph - N/A   Overcast
10:05 PM 69.8 °F - 57.2 °F 64% 29.96 in 10.0 mi NE 4.6 mph - N/A   Overcast
10:25 PM 68.0 °F - 57.2 °F 68% 29.97 in 10.0 mi NE 4.6 mph - N/A   Mostly Cloudy
10:45 PM 68.0 °F - 57.2 °F 68% 29.98 in 10.0 mi ENE 4.6 mph - N/A   Mostly Cloudy
11:05 PM 69.8 °F - 57.2 °F 64% 29.98 in 10.0 mi East 4.6 mph - N/A   Overcast
11:25 PM 68.0 °F - 57.2 °F 68% 29.98 in 10.0 mi East 6.9 mph - N/A   Mostly Cloudy
11:45 PM 68.0 °F - 55.4 °F 64% 29.99 in 10.0 mi ENE 8.1 mph - N/A   Mostly Cloudy